Home   Weather   Lublin   Past weeks

Flag for Poland Past Weather in Lublin, Poland — Yesterday and Last 2 Weeks

Now
46 °F

Overcast.


Feels Like: 46 °F
Forecast: 41 / 52 °F
Wind: 2 mph from Southwest

Location: Lublin Radawiec

Current Time: Feb 27, 2017 at 12:33:00 pm

Latest Report: Feb 27, 2017 at 11:00 am


Visibility: 13 mi

Pressure: 29.97 "Hg

Humidity: 59%

Dew Point: 32 °F

Location of LublinLocation

Past Weather in Lublin — Graph

°F

Lublin Temperature Yesterday

Maximum temperature yesterday: 41 °F (at 2:00 pm)
Minimum temperature yesterday: 28 °F (at 12:00 am)
Average temperature yesterday: 36 °F

High & Low Weather Summary for the Past Weeks

 TemperatureHumidityPressure
High47 °F (Feb 24, 11:00 am)100% (Feb 19, 2:00 am)30.78 "Hg (Feb 19, 2:00 am)
Low12 °F (Feb 14, 2:00 am)53% (Feb 16, 2:00 pm)29.23 "Hg (Feb 24, 3:00 am)
Average32 °F83%30.10 "Hg
* Reported Feb 12 11:00 am — Feb 27 11:00 am, Lublin, Weather by CustomWeather, © 2017

Note: Actual official high and low records may vary slightly from our data, if they occured in-between our weather recording intervals... More about our weather records

Advertising

Lublin Weather History for the Previous 24 Hours

Scroll right to see more
 ConditionsComfort  
Time TempWeatherWind HumidityBarometerVisibility
11:00 am
Mon, Feb 27
46 °FOvercast.2 mph59%29.97 "Hg13 mi
10:00 am44 °FOvercast.2 mph66%29.98 "Hg12 mi
9:00 am40 °FOvercast.2 mph69%29.98 "Hg11 mi
8:00 am39 °FOvercast.2 mph72%29.98 "Hg11 mi
7:00 am38 °FOvercast.1 mph74%29.98 "Hg11 mi
6:00 am37 °FOvercast.2 mph75%29.96 "Hg11 mi
5:00 am37 °FOvercast.2 mph75%29.96 "Hg9 mi
4:00 am38 °FLight rain. Overcast.2 mph71%29.96 "Hg11 mi
3:00 am38 °FOvercast.2 mph71%29.95 "Hg12 mi
2:00 am38 °FOvercast.2 mph70%29.94 "Hg12 mi
1:00 am37 °FOvercast.1 mph71%29.94 "Hg12 mi
12:00 am38 °FOvercast.2 mph70%29.93 "Hg14 mi
11:00 pm
Sun, Feb 26
39 °FOvercast.3 mph65%29.93 "Hg19 mi
10:00 pm39 °FOvercast.3 mph61%29.93 "Hg19 mi
9:00 pm39 °FOvercast.5 mph63%29.92 "Hg19 mi
8:00 pm39 °FOvercast.3 mph64%29.92 "Hg12 mi
7:00 pm40 °FOvercast.6 mph60%29.91 "Hg19 mi
6:00 pm39 °FOvercast.3 mph57%29.90 "Hg19 mi
5:00 pm40 °FOvercast.5 mph56%29.89 "Hg19 mi
4:00 pm40 °FOvercast.5 mph56%29.90 "Hg19 mi
3:00 pm41 °FOvercast.5 mph54%29.91 "Hg22 mi
2:00 pm41 °FOvercast.6 mph54%29.92 "Hg19 mi
1:00 pm39 °FOvercast.7 mph65%29.94 "Hg19 mi
12:00 pm39 °FOvercast.5 mph57%29.96 "Hg19 mi
Weather by CustomWeather, © 2017

See weather overviewHow to use our weather pages